1484895601.2,42147,6.19,74150.5,-6.33,-36.31,-36.55,0,*50
1484895602.46,42148,6.19,74148.8,-6.31,-36.25,-36.61,0,*5F
1484895603.69,42149,6.19,74148.8,-6.33,-36.31,-36.67,0,*5F
1484895604.93,42150,6.19,74144.8,-6.33,-36.31,-36.55,0,*56
1484895606.22,42151,6.19,74144.5,-6.33,-36.25,-36.49,0,*5F
1484895607.49,42152,6.19,74148.5,-6.33,-36.13,-36.37,0,*50
1484895608.74,42153,6.19,74148.3,-6.33,-36.07,-36.37,0,*54
1484895610.0,42154,6.19,74146.3,-6.33,-35.95,-36.31,0,*5D
1484895611.24,42155,6.19,74148.3,-6.35,-36.07,-36.25,0,*57
1484895612.47,42156,6.19,74144.5,-6.35,-35.77,-36.13,0,*55
1484895613.71,42157,6.19,74146.5,-6.35,-35.89,-36.13,0,*55
1484895614.94,42158,6.19,74148.3,-6.35,-35.89,-36.25,0,*5F
1484895616.18,42159,6.13,74140.8,-6.35,-35.95,-36.31,0,*56
1484895617.42,42160,6.19,74146.8,-6.35,-35.95,-36.31,0,*5C
1484895618.65,42161,6.19,74140.3,-6.35,-35.77,-36.13,0,*51
1484895619.88,42162,6.19,74144.3,-6.35,-35.71,-36.13,0,*54
1484895621.09,42163,6.19,74142.0,-6.35,-35.89,-36.07,0,*57
1484895622.32,42164,6.19,74146.5,-6.35,-35.77,-36.13,0,*54
1484895623.56,42165,6.19,74144.5,-6.35,-35.77,-36.13,0,*55
1484895624.81,42166,6.19,74144.5,-6.35,-35.53,-35.95,0,*5D
1484895626.08,42167,6.19,74146.3,-6.33,-35.71,-35.95,0,*5A
1484895627.31,42168,6.19,74144.3,-6.35,-35.77,-36.13,0,*58
1484895628.55,42169,6.19,74144.8,-6.35,-35.89,-36.13,0,*58
1484895629.82,42170,6.19,74146.5,-6.37,-35.83,-36.13,0,*58
1484895631.04,42171,6.19,74146.8,-6.35,-35.71,-35.89,0,*56
1484895632.28,42172,6.19,74144.5,-6.33,-35.59,-35.89,0,*59
1484895633.53,42173,6.19,74144.3,-6.33,-35.53,-35.89,0,*52
1484895634.79,42174,6.19,74146.0,-6.33,-35.59,-35.95,0,*52
1484895636.04,42175,6.19,74146.8,-6.33,-35.41,-35.71,0,*50
1484895637.29,42176,6.19,74146.3,-6.33,-35.35,-35.59,0,*5A
1484895638.55,42177,6.19,74148.8,-6.33,-35.23,-35.59,0,*5C
1484895639.8,42178,6.19,74144.5,-6.33,-35.35,-35.59,0,*54
1484895641.05,42179,6.19,74148.0,-6.33,-35.35,-35.59,0,*55
1484895642.3,42180,6.19,74150.0,-6.33,-35.35,-35.71,0,*59
1484895643.51,42181,6.19,74148.0,-6.31,-35.17,-35.47,0,*5F
1484895644.73,42182,6.19,74144.8,-6.31,-35.17,-35.53,0,*59
1484895645.96,42183,6.19,74146.0,-6.31,-35.29,-35.53,0,*55
1484895647.17,42184,6.19,74146.3,-6.31,-35.29,-35.47,0,*57
1484895648.42,42185,6.19,74142.0,-6.33,-35.35,-35.59,0,*56
1484895649.65,42186,6.19,74144.3,-6.31,-35.47,-35.65,0,*5D
1484895650.88,42187,6.19,74148.3,-6.31,-35.47,-35.65,0,*5C
1484895652.13,42188,6.13,74142.3,-6.33,-35.35,-35.71,0,*51
1484895653.33,42189,6.13,74142.5,-6.31,-35.47,-35.71,0,*57
1484895654.58,42190,6.19,74150.3,-6.31,-35.35,-35.65,0,*5F
1484895655.78,42191,6.19,74144.5,-6.31,-35.47,-35.71,0,*5E
1484895657.01,42192,6.19,74150.5,-6.31,-35.53,-35.89,0,*5F
1484895658.24,42193,6.19,74150.5,-6.31,-35.47,-35.83,0,*51
1484895659.46,42194,6.19,74150.5,-6.31,-35.53,-35.71,0,*5E
1484895660.71,42195,6.19,74152.8,-6.31,-35.35,-35.65,0,*5A
1484895661.96,42196,6.19,74150.0,-6.31,-35.53,-35.83,0,*51
1484895663.21,42197,6.19,74144.8,-6.31,-35.53,-35.83,0,*50
1484895664.48,42198,6.19,74150.3,-6.29,-35.53,-35.83,0,*56
1484895665.71,42199,6.19,74150.0,-6.29,-35.47,-35.71,0,*5F
1484895666.96,42200,6.19,74148.0,-6.29,-35.35,-35.71,0,*59
1484895668.18,42201,6.19,74148.5,-6.29,-35.47,-35.71,0,*5D
1484895669.44,42202,6.19,74152.0,-6.29,-35.47,-35.83,0,*53
1484895670.72,42203,6.19,74150.0,-6.29,-35.65,-35.83,0,*52
1484895671.97,42204,6.19,74148.5,-6.29,-35.53,-36.01,0,*59
1484895673.22,42205,6.19,74146.5,-6.29,-35.53,-35.89,0,*5B
1484895674.49,42206,6.19,74150.0,-6.29,-35.35,-35.65,0,*5A
1484895675.77,42207,6.19,74148.8,-6.29,-35.53,-35.83,0,*53
1484895677.03,42208,6.19,74148.0,-6.25,-35.41,-35.83,0,*53
1484895678.28,42209,6.19,74150.5,-6.29,-35.53,-35.89,0,*57
1484895679.56,42210,6.19,74150.8,-6.29,-35.65,-35.83,0,*50
1484895680.81,42211,6.19,74150.3,-6.29,-35.47,-35.83,0,*51
1484895682.04,42212,6.19,74152.5,-6.29,-35.47,-35.71,0,*5F
1484895683.26,42213,6.19,74152.8,-6.29,-35.47,-35.71,0,*5E
1484895684.51,42214,6.19,74152.0,-6.29,-35.35,-35.71,0,*5C
1484895685.75,42215,6.19,74148.8,-6.29,-35.53,-35.71,0,*5D
1484895686.99,42216,6.19,74154.0,-6.25,-35.59,-35.83,0,*55
1484895688.25,42217,6.19,74148.8,-6.29,-35.47,-35.83,0,*57
1484895689.48,42218,6.19,74154.8,-6.25,-35.35,-35.47,0,*59
1484895690.75,42219,6.19,74150.5,-6.29,-35.35,-35.65,0,*54
1484895692.01,42220,6.19,74152.5,-6.29,-35.65,-35.89,0,*59
1484895693.28,42221,6.19,74154.5,-6.29,-35.35,-35.65,0,*5F
1484895694.49,42222,6.19,74150.3,-6.25,-35.29,-35.59,0,*52
1484895695.73,42223,6.19,74152.8,-6.25,-35.23,-35.59,0,*59
1484895696.97,42224,6.19,74150.5,-6.25,-35.47,-35.83,0,*5B
1484895698.24,42225,6.19,74148.3,-6.29,-35.53,-35.83,0,*53
1484895699.48,42226,6.19,74154.5,-6.29,-35.53,-35.71,0,*5D
1484895700.75,42227,6.19,74160.8,-6.29,-35.53,-35.65,0,*59
1484895701.98,42228,6.19,74158.5,-6.29,-35.47,-35.71,0,*56
1484895703.19,42229,6.19,74154.3,-6.25,-35.59,-36.01,0,*50
1484895704.42,42230,6.19,74154.8,-6.29,-35.71,-36.07,0,*58
1484895705.68,42231,6.19,74156.5,-6.25,-35.65,-35.95,0,*58
1484895706.94,42232,6.19,74158.3,-6.25,-35.65,-35.95,0,*5B
1484895708.2,42233,6.19,74164.8,-6.29,-35.83,-36.01,0,*50
1484895709.44,42234,6.19,74160.5,-6.29,-35.71,-36.01,0,*5A
1484895710.69,42235,6.19,74160.0,-6.29,-35.83,-36.19,0,*5F
1484895711.94,42236,6.19,74158.5,-6.29,-35.83,-36.19,0,*5C
1484895713.2,42237,6.19,74164.5,-6.29,-35.89,-36.25,0,*58
1484895714.45,42238,6.19,74158.0,-6.29,-35.83,-36.07,0,*5D
1484895715.7,42239,6.19,74162.0,-6.29,-35.83,-36.19,0,*53
1484895716.95,42240,6.19,74160.3,-6.31,-35.53,-35.83,0,*59
1484895718.15,42241,6.19,74164.8,-6.31,-35.47,-35.71,0,*50
1484895719.4,42242,6.19,74164.8,-6.33,-35.41,-35.71,0,*57
1484895720.66,42243,6.19,74166.3,-6.29,-35.29,-35.53,0,*53
1484895721.91,42244,6.19,74160.5,-6.29,-35.29,-35.53,0,*54
1484895723.19,42245,6.19,74164.5,-6.29,-35.35,-35.53,0,*58
1484895724.43,42246,6.19,74160.8,-6.29,-35.53,-35.71,0,*5B
1484895725.68,42247,6.19,74166.8,-6.29,-35.35,-35.71,0,*5A
1484895726.93,42248,6.19,74168.8,-6.29,-35.47,-35.65,0,*55
1484895728.15,42249,6.19,74164.3,-6.29,-35.47,-35.71,0,*51
1484895729.39,42250,6.19,74168.8,-6.25,-35.29,-35.65,0,*58
1484895730.64,42251,6.19,74174.0,-6.29,-35.47,-35.83,0,*55
1484895731.87,42252,6.19,74170.8,-6.29,-35.47,-35.71,0,*5B
1484895733.12,42253,6.19,74174.3,-6.25,-35.41,-35.65,0,*55
1484895734.38,42254,6.19,74168.8,-6.29,-35.65,-35.89,0,*5A
1484895735.63,42255,6.19,74170.8,-6.29,-35.65,-36.01,0,*58
1484895736.88,42256,6.19,74166.5,-6.29,-35.83,-36.07,0,*55
1484895738.11,42257,6.19,74164.3,-6.29,-35.71,-36.19,0,*56
1484895739.37,42258,6.19,74170.8,-6.25,-35.83,-36.13,0,*52
1484895740.64,42259,6.19,74164.0,-6.25,-35.95,-36.25,0,*51
1484895741.87,42260,6.19,74164.8,-6.25,-36.01,-36.37,0,*56
1484895743.11,42261,6.19,74160.8,-6.25,-36.13,-36.43,0,*57
1484895744.36,42262,6.19,74156.5,-6.29,-36.19,-36.49,0,*58
1484895745.6,42263,6.19,74158.3,-6.29,-36.19,-36.49,0,*59
1484895746.83,42264,6.19,74154.8,-6.31,-36.07,-36.49,0,*58
1484895748.06,42265,6.19,74152.0,-6.29,-36.07,-36.31,0,*5F
1484895749.31,42266,6.19,74158.0,-6.29,-36.19,-36.49,0,*5C
1484895750.56,42267,6.19,74152.5,-6.29,-36.19,-36.61,0,*57
1484895751.81,42268,6.19,74160.8,-6.29,-36.31,-36.61,0,*52
1484895753.07,42269,6.19,74158.3,-6.29,-36.31,-36.61,0,*53
1484895754.33,42270,6.19,74152.5,-6.33,-36.37,-36.67,0,*50
1484895755.58,42271,6.19,74152.0,-6.33,-36.37,-36.73,0,*54
1484895756.82,42272,6.19,74152.3,-6.31,-36.31,-36.61,0,*50
1484895758.05,42273,6.19,74152.3,-6.33,-36.31,-36.67,0,*55
1484895759.29,42274,6.19,74156.0,-6.33,-36.31,-36.67,0,*52
1484895760.55,42275,6.19,74162.3,-6.33,-36.37,-36.67,0,*55
1484895761.78,42276,6.19,74160.8,-6.35,-36.37,-36.67,0,*50
1484895763.02,42277,6.19,74160.3,-6.35,-36.25,-36.67,0,*52
1484895764.26,42278,6.19,74156.3,-6.33,-36.31,-36.55,0,*5F
1484895765.53,42279,6.19,74154.8,-6.33,-36.25,-36.67,0,*5A
1484895766.74,42280,6.19,74156.0,-6.35,-36.31,-36.67,0,*5F
1484895767.98,42281,6.19,74160.8,-6.35,-36.25,-36.55,0,*5A
1484895769.22,42282,6.19,74160.8,-6.35,-36.37,-36.67,0,*5B
1484895770.47,42283,6.19,74158.8,-6.37,-36.37,-36.73,0,*5D
1484895771.73,42284,6.19,74160.0,-6.37,-36.37,-36.73,0,*5A
1484895772.98,42285,6.19,74156.0,-6.37,-36.37,-36.73,0,*5B
1484895774.24,42286,6.19,74152.3,-6.37,-36.37,-36.73,0,*58
1484895775.47,42287,6.19,74152.0,-6.37,-36.43,-36.73,0,*5A
1484895776.72,42288,6.19,74150.8,-6.37,-36.43,-36.79,0,*5F
1484895777.97,42289,6.19,74148.0,-6.37,-36.37,-36.73,0,*57
1484895779.23,42290,6.19,74152.3,-6.37,-36.37,-36.73,0,*5F
1484895780.48,42291,6.19,74146.3,-6.37,-36.37,-36.73,0,*5E
1484895781.71,42292,6.19,74154.8,-6.37,-36.19,-36.73,0,*51
1484895782.96,42293,6.19,74148.5,-6.37,-36.19,-36.61,0,*53
1484895784.19,42294,6.19,74154.0,-6.37,-36.31,-36.73,0,*5D
1484895785.44,42295,6.19,74158.0,-6.39,-36.37,-36.79,0,*5E
1484895786.7,42296,6.19,74156.3,-6.41,-36.37,-36.67,0,*5D
1484895787.96,42297,6.19,74158.0,-6.39,-36.25,-36.79,0,*5F
1484895789.22,42298,6.19,74158.3,-6.41,-36.37,-36.67,0,*53
1484895790.48,42299,6.19,74154.5,-6.41,-36.37,-36.67,0,*52
1484895791.74,42300,6.19,74152.5,-6.41,-36.37,-36.67,0,*53
1484895792.98,42301,6.19,74158.0,-6.39,-36.25,-36.67,0,*5E
1484895794.24,42302,6.19,74156.5,-6.39,-36.25,-36.79,0,*52
1484895795.52,42303,6.19,74152.5,-6.41,-36.37,-36.79,0,*5F
1484895796.78,42304,6.19,74156.8,-6.41,-36.25,-36.73,0,*51
1484895797.99,42305,6.19,74158.5,-6.43,-36.31,-36.67,0,*52
1484895799.2,42306,6.19,74160.0,-6.43,-36.31,-36.67,0,*51
1484895800.41,42307,6.19,74158.0,-6.43,-36.31,-36.67,0,*50
1484895801.62,42308,6.19,74156.0,-6.43,-36.31,-36.67,0,*5F
1484895802.86,42309,6.19,74156.0,-6.43,-36.25,-36.67,0,*5B
1484895804.1,42310,6.19,74158.5,-6.43,-36.25,-36.67,0,*53
1484895805.33,42311,6.19,74160.5,-6.43,-36.13,-36.55,0,*56
1484895806.59,42312,6.19,74158.5,-6.45,-36.13,-36.55,0,*53
1484895807.86,42313,6.19,74160.8,-6.45,-36.13,-36.49,0,*5F
1484895809.07,42314,6.19,74162.3,-6.43,-36.07,-36.43,0,*51
1484895810.3,42315,6.19,74162.0,-6.45,-36.07,-36.43,0,*56
1484895811.54,42316,6.19,74160.3,-6.45,-36.07,-36.31,0,*50
1484895812.8,42317,6.19,74162.3,-6.43,-35.95,-36.25,0,*5A
1484895814.06,42318,6.19,74160.3,-6.45,-35.77,-36.25,0,*5F
1484895815.3,42319,6.19,74162.3,-6.43,-35.77,-36.25,0,*58
1484895816.56,42320,6.19,74162.5,-6.45,-35.89,-36.25,0,*55
1484895817.85,42321,6.19,74156.8,-6.45,-35.95,-36.25,0,*59
1484895819.08,42322,6.19,74152.0,-6.43,-35.95,-36.43,0,*5C
1484895820.34,42323,6.19,74156.0,-6.45,-35.95,-36.43,0,*5B
1484895821.62,42324,6.19,74158.8,-6.45,-36.13,-36.49,0,*5B
1484895822.83,42325,6.19,74158.3,-6.43,-36.07,-36.31,0,*56
1484895824.09,42326,6.19,74152.5,-6.43,-35.95,-36.25,0,*58
1484895825.32,42327,6.19,74152.5,-6.43,-36.07,-36.25,0,*51
1484895826.61,42328,6.19,74152.0,-6.45,-35.95,-36.25,0,*50
1484895827.84,42329,6.19,74152.0,-6.45,-36.07,-36.43,0,*59
1484895829.1,42330,6.19,74148.8,-6.45,-36.25,-36.43,0,*51
1484895830.38,42331,6.19,74148.8,-6.45,-36.13,-36.49,0,*5F
1484895831.63,42332,6.19,74144.3,-6.43,-36.13,-36.49,0,*5A
1484895832.91,42333,6.19,74146.3,-6.45,-36.13,-36.49,0,*5D
1484895834.17,42334,6.19,74150.5,-6.45,-36.25,-36.43,0,*55
1484895835.42,42335,6.19,74152.0,-6.45,-36.13,-36.43,0,*51
1484895836.67,42336,6.19,74146.8,-6.45,-36.13,-36.43,0,*52
1484895837.91,42337,6.19,74150.3,-6.47,-35.95,-36.31,0,*59
1484895839.17,42338,6.19,74148.5,-6.47,-35.95,-36.25,0,*53
1484895840.44,42339,6.19,74144.5,-6.47,-35.95,-36.25,0,*52
1484895841.67,42340,6.19,74146.3,-6.47,-35.89,-36.13,0,*54
1484895842.9,42341,6.19,74150.0,-6.47,-35.89,-36.13,0,*55
1484895844.14,42342,6.19,74152.3,-6.51,-35.59,-35.83,0,*56
1484895845.38,42343,6.19,74154.5,-6.47,-35.71,-35.95,0,*5D
1484895846.64,42344,6.19,74150.8,-6.47,-35.95,-36.25,0,*58
1484895847.91,42345,6.19,74152.8,-6.47,-35.95,-36.25,0,*59
1484895849.14,42346,6.19,74150.3,-6.47,-35.89,-36.25,0,*57
1484895850.35,42347,6.19,74152.0,-6.47,-35.77,-36.07,0,*57
1484895851.58,42348,6.19,74152.0,-6.47,-35.89,-36.13,0,*5C
1484895852.84,42349,6.19,74158.0,-6.51,-35.83,-36.13,0,*50
1484895854.08,42350,6.19,74152.0,-6.51,-35.95,-36.19,0,*55
1484895855.31,42351,6.19,74152.0,-6.47,-35.89,-36.13,0,*54
1484895856.51,42352,6.19,74152.5,-6.51,-35.71,-36.07,0,*52
1484895857.75,42353,6.19,74154.8,-6.47,-35.71,-35.95,0,*5C
1484895858.99,42354,6.19,74158.3,-6.47,-35.71,-35.95,0,*5B
1484895860.23,42355,6.19,74154.0,-6.51,-35.77,-36.13,0,*56
1484895861.43,42356,6.19,74154.8,-6.47,-35.89,-36.07,0,*56
1484895862.64,42357,6.19,74156.5,-6.47,-35.59,-36.19,0,*55
1484895863.87,42358,6.19,74154.8,-6.47,-35.41,-35.89,0,*59
1484895865.09,42359,6.19,74148.8,-6.47,-35.59,-35.89,0,*51
1484895866.32,42360,6.19,74158.5,-6.47,-35.77,-36.13,0,*57
1484895867.53,42361,6.19,74154.5,-6.47,-35.77,-36.07,0,*53
1484895868.79,42362,6.19,74152.0,-6.47,-35.83,-36.13,0,*5E
1484895870.02,42363,6.19,74148.8,-6.47,-35.77,-36.13,0,*54
1484895871.26,42364,6.19,74154.8,-6.47,-35.71,-36.13,0,*55
1484895872.49,42365,6.19,74154.8,-6.51,-35.89,-36.13,0,*54
1484895873.73,42366,6.19,74154.3,-6.47,-35.89,-36.25,0,*55
1484895874.97,42367,6.19,74154.8,-6.47,-35.77,-36.25,0,*55
1484895876.2,42368,6.19,74158.0,-6.51,-35.95,-36.31,0,*54
1484895877.44,42369,6.19,74154.3,-6.51,-35.95,-36.31,0,*55
1484895878.68,42370,6.19,74152.3,-6.51,-35.95,-36.31,0,*5D
1484895879.88,42371,6.19,74156.3,-6.47,-35.89,-36.07,0,*53
1484895881.14,42372,6.19,74154.3,-6.51,-35.83,-36.13,0,*58
1484895882.38,42373,6.19,74156.8,-6.51,-35.65,-36.01,0,*52
1484895883.62,42374,6.19,74152.8,-6.51,-35.47,-35.95,0,*5B
1484895884.85,42375,6.19,74158.0,-6.47,-35.47,-35.83,0,*5A
1484895886.09,42376,6.19,74160.8,-6.51,-35.47,-35.83,0,*5E
1484895887.32,42377,6.19,74160.0,-6.47,-35.41,-35.77,0,*55
1484895888.53,42378,6.19,74166.3,-6.47,-35.59,-35.77,0,*53
1484895889.77,42379,6.19,74162.3,-6.51,-35.47,-35.83,0,*51
1484895891.01,42380,6.19,74170.5,-6.51,-35.47,-35.83,0,*57
1484895892.26,42381,6.19,74166.3,-6.51,-35.65,-35.83,0,*56
1484895893.52,42382,6.19,74166.0,-6.47,-35.53,-35.95,0,*50
1484895894.74,42383,6.19,74164.3,-6.51,-35.77,-36.01,0,*5E
1484895896.0,42384,6.19,74166.3,-6.51,-35.83,-36.13,0,*51
1484895897.23,42385,6.19,74164.8,-6.51,-35.77,-36.13,0,*5B
1484895898.49,42386,6.19,74166.0,-6.51,-35.83,-36.13,0,*53
1484895899.73,42387,6.19,74166.5,-6.47,-35.77,-36.25,0,*5B
1484895900.97,42388,6.19,74166.8,-6.51,-35.89,-36.13,0,*57
1484895902.17,42389,6.19,74166.0,-6.47,-35.89,-36.07,0,*54
1484895903.41,42390,6.19,74166.3,-6.51,-35.95,-36.19,0,*59
1484895904.67,42391,6.19,74164.8,-6.47,-35.95,-36.25,0,*50
1484895905.88,42392,6.19,74166.5,-6.51,-36.01,-36.31,0,*5F
1484895907.14,42393,6.19,74162.3,-6.51,-35.95,-36.13,0,*50
1484895908.37,42394,6.19,74160.8,-6.51,-35.95,-36.19,0,*5D
1484895909.61,42395,6.19,74168.5,-6.51,-35.95,-36.19,0,*5C
1484895910.82,42396,6.19,74158.0,-6.47,-36.07,-36.31,0,*5A
1484895912.07,42397,6.19,74160.0,-6.51,-36.13,-36.37,0,*5F
1484895913.32,42398,6.19,74160.3,-6.51,-36.13,-36.49,0,*59
1484895914.55,42399,6.19,74164.0,-6.51,-36.01,-36.37,0,*52
1484895915.78,42400,6.19,74166.0,-6.51,-36.01,-36.37,0,*55
1484895916.99,42401,6.19,74168.5,-6.51,-36.01,-36.31,0,*52
1484895918.24,42402,6.19,74166.8,-6.53,-36.07,-36.37,0,*53
1484895919.5,42403,6.19,74164.3,-6.53,-36.07,-36.37,0,*52
1484895920.73,42404,6.19,74164.3,-6.53,-36.01,-36.19,0,*5F
1484895921.99,42405,6.19,74168.3,-6.53,-35.83,-36.01,0,*5E
1484895923.23,42406,6.19,74166.8,-6.53,-35.71,-36.01,0,*50
1484895924.46,42407,6.19,74170.3,-6.53,-35.71,-36.07,0,*57
1484895925.69,42408,6.19,74168.3,-6.53,-35.71,-36.01,0,*5E
1484895926.92,42409,6.19,74166.0,-6.53,-35.71,-36.19,0,*56
1484895928.18,42410,6.19,74166.0,-6.53,-35.83,-36.07,0,*5C
1484895929.41,42411,6.19,74168.0,-6.53,-35.71,-36.07,0,*50
1484895930.67,42412,6.19,74166.5,-6.53,-35.53,-35.89,0,*56
1484895931.94,42413,6.19,74168.0,-6.53,-35.53,-35.83,0,*5D
1484895933.22,42414,6.19,74166.3,-6.53,-35.65,-35.83,0,*5F
1484895934.48,42415,6.19,74168.3,-6.53,-35.53,-35.89,0,*51
1484895935.74,42416,6.19,74170.3,-6.53,-35.47,-35.83,0,*5D
1484895937.0,42417,6.19,74168.0,-6.53,-35.47,-35.83,0,*5C
1484895938.26,42418,6.19,74170.3,-6.53,-35.65,-35.89,0,*59
1484895939.5,42419,6.19,74170.0,-6.51,-35.47,-35.83,0,*50
1484895940.73,42420,6.19,74174.8,-6.51,-35.59,-35.83,0,*55
1484895941.99,42421,6.19,74172.5,-6.51,-35.65,-35.83,0,*5B
1484895943.25,42422,6.19,74174.5,-6.51,-35.65,-35.95,0,*5F
1484895944.51,42423,6.19,74174.5,-6.51,-35.65,-35.95,0,*5E
1484895945.74,42424,6.19,74178.0,-6.51,-35.59,-35.83,0,*51
1484895947.02,42425,6.19,74174.5,-6.53,-35.65,-35.83,0,*5D
1484895948.3,42426,6.19,74172.0,-6.53,-35.53,-35.83,0,*5B
1484895949.56,42427,6.19,74178.0,-6.51,-35.41,-35.83,0,*5B
1484895950.77,42428,6.19,74176.0,-6.51,-35.59,-35.77,0,*56
1484895952.0,42429,6.19,74178.8,-6.47,-35.53,-35.77,0,*5A
1484895953.26,42430,6.19,74172.3,-6.51,-35.83,-36.13,0,*59
1484895954.52,42431,6.19,74168.0,-6.51,-35.95,-36.13,0,*5F
1484895955.75,42432,6.19,74166.5,-6.51,-35.95,-36.19,0,*56
1484895957.01,42433,6.19,74166.8,-6.51,-35.95,-36.13,0,*5D
1484895958.27,42434,6.19,74164.0,-6.51,-35.83,-36.13,0,*5D
1484895959.53,42435,6.19,74160.5,-6.51,-35.83,-36.13,0,*5C
1484895960.76,42436,6.19,74164.5,-6.51,-35.83,-36.19,0,*55
1484895961.99,42437,6.19,74158.0,-6.53,-36.07,-36.19,0,*59
1484895963.22,42438,6.19,74156.5,-6.53,-35.89,-36.19,0,*53
1484895964.43,42439,6.19,74144.5,-6.51,-35.71,-36.07,0,*58
1484895965.66,42440,6.19,74144.8,-6.51,-35.59,-35.95,0,*54
1484895966.9,42441,6.19,74144.3,-6.51,-35.83,-36.19,0,*55
1484895968.16,42442,6.19,74150.0,-6.51,-35.95,-36.13,0,*5B
1484895969.37,42443,6.19,74150.8,-6.51,-35.77,-36.19,0,*5C
1484895970.6,42444,6.19,74142.5,-6.51,-35.95,-36.31,0,*5D
1484895971.81,42445,6.19,74140.5,-6.51,-36.01,-36.31,0,*52
1484895973.02,42446,6.19,74140.8,-6.51,-36.01,-36.31,0,*51
1484895974.25,42447,6.19,74136.8,-6.51,-36.01,-36.37,0,*56
1484895975.49,42448,6.19,74138.0,-6.51,-36.07,-36.25,0,*5C
1484895976.74,42449,6.19,74138.5,-6.53,-36.07,-36.37,0,*5C
1484895977.95,42450,6.19,74142.5,-6.51,-36.01,-36.31,0,*56
1484895979.16,42451,6.19,74148.0,-6.51,-36.01,-36.31,0,*57
1484895980.39,42452,6.19,74154.8,-6.51,-36.01,-36.37,0,*52
1484895981.62,42453,6.19,74154.5,-6.51,-36.01,-36.37,0,*53
1484895982.83,42454,6.19,74154.8,-6.51,-36.01,-36.31,0,*52
1484895984.06,42455,6.19,74156.0,-6.51,-36.01,-36.37,0,*55
1484895985.29,42456,6.19,74162.5,-6.51,-36.01,-36.37,0,*56
1484895986.52,42457,6.19,74158.5,-6.53,-36.07,-36.43,0,*50
1484895987.75,42458,6.19,74158.5,-6.53,-36.19,-36.43,0,*50
1484895988.99,42459,6.19,74158.8,-6.53,-36.07,-36.43,0,*5E
1484895990.24,42460,6.19,74156.8,-6.53,-36.07,-36.37,0,*57
1484895991.48,42461,6.19,74162.3,-6.55,-36.01,-36.25,0,*55
1484895992.71,42462,6.19,74156.3,-6.53,-35.89,-36.19,0,*5C
1484895993.94,42463,6.19,74156.0,-6.53,-35.89,-36.19,0,*5D
1484895995.18,42464,6.19,74162.8,-6.55,-35.83,-36.19,0,*56
1484895996.43,42465,6.19,74160.3,-6.53,-35.83,-36.19,0,*51
1484895997.66,42466,6.19,74162.5,-6.53,-35.71,-36.19,0,*5F
1484895998.9,42467,6.19,74162.0,-6.53,-35.71,-36.01,0,*57
1484896000.14,42468,6.19,74162.8,-6.55,-35.65,-36.01,0,*5B
1484896001.41,42469,6.19,74162.5,-6.53,-35.65,-35.83,0,*55
1484896002.69,42470,6.19,74162.0,-6.53,-35.53,-35.83,0,*58
1484896003.97,42471,6.19,74160.5,-6.53,-35.35,-35.65,0,*51
1484896005.2,42472,6.19,74158.8,-6.53,-35.29,-35.71,0,*5A
1484896006.45,42473,6.19,74164.0,-6.53,-35.35,-35.71,0,*56
1484896007.69,42474,6.19,74162.0,-6.53,-35.29,-35.71,0,*5C
1484896008.94,42475,6.19,74168.0,-6.53,-35.29,-35.65,0,*58
1484896010.18,42476,6.19,74166.8,-6.51,-35.23,-35.47,0,*53
1484896011.38,42477,6.19,74164.3,-6.51,-35.17,-35.47,0,*55
1484896012.59,42478,6.19,74164.3,-6.51,-35.17,-35.47,0,*5A
1484896013.83,42479,6.19,74164.5,-6.51,-35.23,-35.47,0,*5C
1484896015.06,42480,6.19,74160.0,-6.51,-35.23,-35.47,0,*5A
1484896016.27,42481,6.19,74160.3,-6.51,-35.29,-35.47,0,*51
1484896017.48,42482,6.19,74154.8,-6.47,-35.17,-35.59,0,*57
1484896018.71,42483,6.19,74158.5,-6.51,-35.35,-35.77,0,*5D
1484896019.94,42484,6.19,74158.5,-6.47,-35.41,-35.71,0,*58
1484896021.17,42485,6.19,74154.8,-6.47,-35.53,-35.77,0,*5C
1484896022.39,42486,6.19,74156.3,-6.51,-35.47,-35.77,0,*5D
1484896023.61,42487,6.19,74154.0,-6.47,-35.41,-35.71,0,*5B
1484896024.84,42488,6.19,74158.3,-6.47,-35.23,-35.71,0,*50
1484896026.1,42489,6.19,74152.3,-6.47,-35.23,-35.53,0,*51
1484896027.36,42490,6.19,74158.3,-6.47,-35.23,-35.53,0,*59
1484896028.56,42491,6.19,74162.5,-6.47,-35.17,-35.59,0,*55
1484896029.79,42492,6.19,74160.5,-6.47,-35.17,-35.53,0,*5C
1484896031.04,42493,6.19,74164.0,-6.45,-35.13,-35.35,0,*5B
1484896032.31,42494,6.19,74166.3,-6.45,-35.01,-35.41,0,*5C
1484896033.57,42495,6.19,74166.5,-6.43,-34.95,-35.35,0,*54
1484896034.82,42496,6.19,74168.8,-6.45,-35.01,-35.23,0,*5A
1484896036.09,42497,6.19,74164.8,-6.45,-35.01,-35.35,0,*5C
1484896037.37,42498,6.19,74162.5,-6.45,-34.95,-35.23,0,*58
1484896038.62,42499,6.19,74156.3,-6.45,-35.13,-35.35,0,*51
1484896039.85,42500,6.19,74154.8,-6.43,-35.13,-35.41,0,*55
1484896041.08,42501,6.19,74150.0,-6.43,-35.13,-35.35,0,*57
1484896042.34,42502,6.19,74146.8,-6.41,-34.95,-35.17,0,*59
1484896043.57,42503,6.19,74138.5,-6.41,-34.89,-35.13,0,*51
1484896044.83,42504,6.19,74142.0,-6.41,-34.95,-35.17,0,*5F
1484896046.09,42505,6.19,74140.3,-6.41,-34.95,-35.17,0,*5E
1484896047.37,42506,6.19,74148.5,-6.41,-35.07,-35.35,0,*57
1484896048.63,42507,6.19,74154.0,-6.41,-34.95,-35.13,0,*58
1484896049.92,42508,6.19,74154.8,-6.41,-34.95,-35.07,0,*52
1484896051.12,42509,6.19,74160.5,-6.39,-34.89,-35.17,0,*50
1484896052.36,42510,6.19,74162.3,-6.39,-34.95,-35.17,0,*55
1484896053.6,42511,6.19,74162.3,-6.39,-35.07,-35.29,0,*53
1484896054.8,42512,6.19,74162.5,-6.39,-34.89,-35.17,0,*5A
1484896056.04,42513,6.19,74162.8,-6.39,-34.95,-35.17,0,*56
1484896057.3,42514,6.19,74162.0,-6.39,-35.07,-35.35,0,*5B
1484896058.54,42515,6.19,74160.0,-6.37,-35.01,-35.29,0,*5F
1484896059.79,42516,6.19,74160.3,-6.37,-35.01,-35.23,0,*56
1484896061.03,42517,6.19,74162.0,-6.37,-35.01,-35.29,0,*5D
1484896062.27,42518,6.19,74164.5,-6.37,-35.01,-35.29,0,*52
1484896063.52,42519,6.19,74164.5,-6.37,-35.01,-35.23,0,*59
1484896064.8,42520,6.19,74164.3,-6.37,-35.07,-35.23,0,*55
1484896066.04,42521,6.19,74172.0,-6.35,-34.83,-35.17,0,*5C
1484896067.27,42522,6.19,74170.5,-6.35,-34.83,-35.17,0,*5F
1484896068.53,42523,6.19,74174.0,-6.35,-34.95,-35.23,0,*5E
1484896069.79,42524,6.25,74174.8,-6.35,-34.95,-35.23,0,*59
1484896071.02,42525,6.19,74174.3,-6.35,-34.95,-35.17,0,*5F
1484896072.26,42526,6.25,74178.3,-6.35,-34.95,-35.17,0,*5C
1484896073.52,42527,6.19,74178.5,-6.33,-34.95,-35.17,0,*5B
1484896074.8,42528,6.19,74178.0,-6.33,-34.95,-35.07,0,*55
1484896076.09,42529,6.25,74180.3,-6.33,-34.95,-35.23,0,*52
1484896077.34,42530,6.19,74182.0,-6.33,-34.95,-35.17,0,*5D
1484896078.63,42531,6.25,74180.3,-6.33,-34.95,-35.23,0,*5B
1484896079.91,42532,6.25,74182.0,-6.33,-35.07,-35.41,0,*56
1484896081.19,42533,6.19,74180.3,-6.33,-35.35,-35.53,0,*55
1484896082.44,42534,6.19,74178.5,-6.33,-35.35,-35.59,0,*58
1484896083.65,42535,6.19,74178.8,-6.31,-35.13,-35.47,0,*50
1484896084.9,42536,6.19,74178.0,-6.33,-35.17,-35.53,0,*50
1484896086.1,42537,6.19,74164.8,-6.31,-35.17,-35.47,0,*56
1484896087.38,42538,6.19,74164.8,-6.33,-35.35,-35.53,0,*5E
1484896088.61,42539,6.19,74162.0,-6.31,-35.35,-35.47,0,*58
1484896089.84,42540,6.19,74158.8,-6.31,-35.47,-35.65,0,*53
1484896091.04,42541,6.19,74162.0,-6.31,-35.47,-35.71,0,*57
1484896092.27,42542,6.19,74156.0,-6.31,-35.65,-35.89,0,*53
1484896093.52,42543,6.19,74160.8,-6.31,-35.53,-35.83,0,*5D
1484896094.75,42544,6.25,74166.8,-6.31,-35.65,-35.89,0,*55
1484896096.0,42545,6.19,74164.3,-6.31,-35.53,-35.83,0,*5B
1484896097.2,42546,6.19,74168.3,-6.31,-35.47,-35.71,0,*50
1484896098.46,42547,6.19,74168.5,-6.31,-35.65,-35.83,0,*5C
1484896099.69,42548,6.19,74170.3,-6.31,-35.65,-36.01,0,*5A
1484896100.9,42549,6.19,74168.8,-6.31,-35.71,-36.01,0,*5E
1484896102.13,42550,6.19,74168.0,-6.31,-35.83,-36.07,0,*5D
1484896103.33,42551,6.25,74170.0,-6.31,-35.71,-36.07,0,*51
1484896104.56,42552,6.25,74168.5,-6.31,-35.83,-36.19,0,*50
1484896105.79,42553,6.19,74164.5,-6.33,-35.77,-36.07,0,*57